Location: Carbonear
(47.7333°N, 53.2500°W)
Time: 11:24:32
(UTC+00:00)

XW-2F - Visible Passes

Search period start: 30 November 2022 00:00
Search period end: 10 December 2022 00:00
Orbit: 477 x 496 km, 97.5° (Epoch: 30 November)

Date Brightness Start Highest point End Pass type
(mag) Time Alt. Az. Time Alt. Az. Time Alt. Az.
30 Nov ? 09:37:16 10° NNE 09:40:35 35° E 09:43:52 10° SSE visible
30 Nov ? 20:16:52 10° SE 20:19:50 25° ENE 20:22:49 10° NNE visible
30 Nov ? 21:50:15 10° SSW 21:53:16 25° W 21:56:16 10° NW visible
01 Dec ? 09:13:57 10° NE 09:16:35 19° E 09:19:12 10° SE visible
01 Dec ? 21:25:49 10° S 21:29:17 47° W 21:32:45 10° NNW visible
02 Dec ? 08:51:49 10° ENE 08:52:28 10° E 08:53:07 10° E visible
02 Dec ? 10:22:48 10° N 10:26:20 62° WNW 10:29:51 10° SSW visible
02 Dec ? 21:01:47 10° SSE 21:05:22 86° ENE 21:08:56 10° NNW visible
03 Dec ? 09:58:53 10° NNE 10:02:27 66° ESE 10:05:59 10° S visible
03 Dec ? 20:38:06 10° SE 20:41:30 43° ENE 20:44:54 10° N visible
03 Dec ? 22:13:08 10° SW 22:15:12 15° W 22:17:15 10° NW visible
04 Dec ? 09:35:11 10° NNE 09:38:27 33° E 09:41:42 10° SSE visible
04 Dec ? 20:14:48 10° ESE 20:17:42 24° ENE 20:20:36 10° NNE visible
04 Dec ? 21:48:01 10° SSW 21:51:05 26° W 21:54:09 10° NW visible
05 Dec ? 09:11:50 10° NE 09:14:21 18° E 09:16:53 10° SE visible
05 Dec ? 21:23:33 10° S 21:27:02 51° W 21:30:31 10° NNW visible
06 Dec ? 10:20:30 10° N 10:24:03 67° WNW 10:27:36 10° SSW visible
06 Dec ? 20:59:29 10° SSE 21:03:02 80° ENE 21:06:37 10° N visible
07 Dec ? 09:56:31 10° NNE 10:00:04 61° E 10:03:37 10° S visible
07 Dec ? 20:35:46 10° SE 20:39:06 40° ENE 20:42:28 10° N visible
07 Dec ? 22:10:33 10° SW 22:12:46 16° W 22:14:58 10° NW visible
08 Dec ? 09:32:46 10° NNE 09:35:59 31° E 09:39:12 10° SSE visible
08 Dec ? 20:12:25 10° ESE 20:15:14 22° ENE 20:18:03 10° NNE visible
08 Dec ? 21:45:28 10° SSW 21:48:34 28° W 21:51:42 10° NW visible
09 Dec ? 09:09:24 10° NE 09:11:49 17° E 09:14:13 10° SE visible
09 Dec ? 21:20:58 10° S 21:24:28 55° W 21:27:58 10° NNW visible
